Weather Roundup
Issued by NWS Chicago, IL

Home | Current Version | Previous Version | Graphics & Text | Print | Product List | Glossary On
Versions: 1 2 3 4 5 6 7 8 9 10 11 12 13 14 15 16 17 18 19 20 21 22 23 24 25 26 27 28 29 30 31 32 33 34 35 36 37 38 39 40 41 42 43 44 45 46 47 48 49 50
000
NZUS59 KLOT 181609
HRRLOT

CHICAGO AREA WEATHER ROUNDUP
NATIONAL WEATHER SERVICE CHICAGO/ROMEOVILLE IL
1100 AM CDT WED OCT 18 2017

NOTE: "FAIR" INDICATES FEW OR NO CLOUDS BELOW 12,000 FEET WITH NO
SIGNIFICANT WEATHER AND/OR OBSTRUCTIONS TO VISIBILITY.

* THESE STATIONS ARE NOT UNDER NWS QUALITY CONTROL. THEY ALSO MAY NOT
  REPORT WEATHER SUCH AS PRECIPITATION OR FOG.

ILZ005-006-012>014-019>023-181700-
NORTHEAST ILLINOIS

CITY           SKY/WX    TMP DP  RH WIND       PRES   REMARKS
OHARE          SUNNY     62  42  47 SW15      30.13F
MIDWAY         SUNNY     63  43  48 S13       30.15F
AURORA         SUNNY     62  46  55 S13       30.15F
LANSING*       SUNNY     62  47  58 S15       30.18F
JOLIET*        SUNNY     63  46  53 S14       30.16S
WAUKEGAN       SUNNY     63  44  50 S15       30.10F
DUPAGE AIRPORT SUNNY     60  45  57 S12       30.13F
WHEELING       SUNNY     63  45  51 S10       30.14F
KANKAKEE*      SUNNY     62  44  52 S12G18    30.20F
MORRIS*        SUNNY     64  44  49 S12       30.14F
LEWIS AIRPORT* SUNNY     62  45  54 S13       30.15F
NORTHERLY ISL    N/A     62  40  44 S10         N/A
$$

WIZ051-052-058>065-066-070>072-181700-
SOUTHEAST WISCONSIN

CITY           SKY/WX    TMP DP  RH WIND       PRES   REMARKS
MILWAUKEE      SUNNY     64  43  46 S15       30.07F
KENOSHA*       SUNNY     64  43  46 S12       30.10F
RACINE*        SUNNY     65  45  48 SW16      30.10F
BURLINGTON     SUNNY     64  46  52 S12       30.08F
WAUKESHA       SUNNY     61  43  51 S13G18    30.07F
WEST BEND      SUNNY     64  43  45 S14G20    30.02F
$$

INZ001>003-010>013-019-020-181700-
NORTHWEST INDIANA

CITY           SKY/WX    TMP DP  RH WIND       PRES   REMARKS
GARY*          SUNNY     63  41  45 S13       30.18F
MICHIGAN CITY* NOT AVBL
RENSSELAER*    NOT AVBL
VALPARAISO     SUNNY     63  44  50 S16G23    30.20F
$$

LMZ740>746-181700-
SOUTHERN LAKE MICHIGAN

STATION/POSITION TIME  SKY/WX   TEMP WIND        PRES    VSBY
                                AIR  DIR/SP/G
                 (UTC)          (F)  (DEG/KT/KT) (MB)    (MI)
HARRISON CRIB    1540            60  190/ 14/ 15   N/A
BURNHAM HARBOR   1600            62  170/  7/ 15   N/A
CALUMET HARBOR   1548            61  170/ 11/ 13 1020.5F
BURNS HARBOR     1540            60  190/ 13/ 18 1022.4F
MICHIGAN CITY    1540            59  180/ 15/ 19   N/A
$$

ABBREVIATIONS USED IN REMARKS
   TC - TEMPERATURE IN CELSIUS
  WCI - WIND CHILL INDEX
   HX - HEAT INDEX
  VSB - VISIBILITY
$$




USA.gov is the U.S. government's official web portal to all federal, state and local government web resources and services.